Location: Claremont
(33.9858°S, 18.4575°E)
Time: 04:55:34
(UTC+00:00)

SL-24 R/B - RUBIN 2 - Pass Details

Date: 03 March 2021
Orbit: 578 x 1017 km, 64.6° (Epoch: 17 April)

Event Time Altitude Azimuth Distance (km) Brightness Sun altitude
Rises 18:09:03 0° 331° (NNW) 2,836 7.1 -10.8°
Reaches altitude 10° 18:11:18 10° 331° (NNW) 1,915 6.3 -11.3°
Maximum altitude 18:15:34 86° 243° (WSW) 592 3.5 -12.1°
Drops below altitude 10° 18:19:52 10° 152° (SSE) 1,933 6.0 -13.0°
Sets 18:22:09 0° 151° (SSE) 2,866 6.9 -13.4°
